[[{"header":{"parameterUnit":"m.s-1","parameterCategory":1,"la1":30.2991,"la2":30.254,"lo1":-89.0895,"lo2":-89.0444,"dy":0.0017,"dx":0.0017,"nx":28,"ny":28,"refTime":"2024-07-15T21:00:00:Z","depth":0,"parameterNumber":2,"parameterNumberName":"U-component_of_WINDS"},"data":[0,0,0,0,0,0,0,0,0,0,0,0,0,0,0,0,0,0,0,0,0,0,0,0,0,0,0,0,0,0,0,0,0,0,0,0,0,0,0,0,0,0,0,0,0,0,0,0,0,0,0,0,0,0,0,0,0,0,1.0655,1.0656,0,1.0743,1.0744,1.0745,1.0779,1.0779,1.0779,1.0779,1.0867,1.087,1.0873,0,0,0,0,0,0,0,0,0,0,0,0,0,1.051,1.0513,1.0655,1.0656,1.0657,1.0743,1.0745,1.0746,1.0779,1.0779,1.0779,1.0778,1.0867,1.087,1.0873,0,0,0,0,0,0,0,0,0,0,0,0,0,1.0583,1.0514,1.0654,1.0684,1.0688,1.0743,1.0745,1.0746,1.0779,1.0779,1.0779,1.0778,1.0866,1.0869,1.0873,1.0905,0,0,1.0885,1.0887,0,0,0,0,0,0,0,0,1.0579,1.0589,1.0679,1.0682,1.0686,1.075,1.0726,1.0799,1.0779,1.0744,1.0779,1.0778,1.0829,1.0835,1.0853,1.0909,1.0913,1.0886,1.0888,1.089,1.0891,0,0,0,0,0,0,0,1.0574,1.0585,1.069,1.068,1.0685,1.0692,1.0702,1.074,1.0787,1.0748,1.075,1.076,1.0831,1.0849,1.0855,1.0914,1.0885,1.0889,1.0891,1.0893,1.0999,1.0999,0,0,0,0,0,0,1.0564,1.058,1.0687,1.0692,1.0631,1.0695,1.0706,1.073,1.0787,1.0796,1.0761,1.0762,1.0843,1.0851,1.0858,1.0899,1.089,1.0893,1.0895,1.0998,1.0999,1.1,0,0,0,0,0,0,1.0561,1.0574,1.0683,1.0637,1.0652,1.0697,1.0724,1.0732,1.075,1.0797,1.0805,1.0771,1.0843,1.0853,1.0893,1.0902,1.0895,1.0899,1.0998,1.0999,1.0999,1.0979,0,0,0,0,0,0,1.0557,1.0572,1.0586,1.0637,1.0654,1.0717,1.0725,1.0734,1.0757,1.0759,1.0809,1.0817,1.0843,1.0887,1.0897,1.0907,1.0902,1.0997,1.0998,1.0999,1.0979,1.0979,1.0979,0,0,0,0,0,1.0552,1.0577,1.0587,1.0599,1.0672,1.0718,1.0727,1.0757,1.0758,1.0771,1.0801,1.0815,1.0899,1.0891,1.0902,1.0914,1.0997,1.0998,1.0999,1.0979,1.0979,1.0979,0,0,0,0,0,0,1.0525,1.0584,1.0596,1.0638,1.0673,1.0723,1.0742,1.0757,1.0791,1.0792,1.0827,1.0838,1.0874,1.0898,1.0887,1.0947,1.0949,1.0952,1.093,1.093,1.093,1.0924,1.0905,0,0,0,0,0,1.0524,1.0557,1.0607,1.0639,1.0656,1.0696,1.0717,1.0737,1.0774,1.0788,1.0821,1.0855,1.0889,1.0911,1.0945,1.0982,1.0993,1.0996,1.0996,1.0995,1.0998,1.1018,1.102,1.1003,1.1003,1.1003,0,0,1.0523,1.0559,1.0578,1.0635,1.0664,1.0696,1.0708,1.0742,1.0766,1.0793,1.0833,1.0858,1.0898,1.0937,1.0955,1.0958,1.1005,1.0997,1.0996,1.0999,1.1019,1.1021,1.1022,1.1004,1.1004,1.1003,0,0,1.0537,1.0568,1.0598,1.0627,1.067,1.0696,1.0703,1.0751,1.0769,1.0809,1.083,1.0858,1.0916,1.0944,1.0966,1.0987,1.1001,1.0997,1.0996,1.1015,1.1017,1.1018,1.1025,1.1027,1.0999,1.0999,1.0999,0,1.0529,1.058,1.0611,1.0644,1.0668,1.0694,1.0723,1.0749,1.0802,1.0817,1.0819,1.0891,1.092,1.0965,1.097,1.0987,1.0995,1.0992,1.1014,1.1016,1.1017,1.1024,1.1027,1.0998,1.0998,1.0998,1.0999,0,1.0567,1.0602,1.0621,1.0671,1.0696,1.0727,1.0762,1.0784,1.0801,1.0826,1.0865,1.0901,1.0942,1.0954,1.0971,1.1,1.1,1.1007,1.1011,1.1018,1.1025,1.1028,1.0997,1.0997,1.0998,1.0998,0,0,1.0569,1.0635,1.0641,1.0663,1.0712,1.0739,1.077,1.081,1.0828,1.0862,1.0888,1.0936,1.0942,1.0967,1.0987,1.1003,1.1017,1.1009,1.101,1.1008,1.1049,1.1044,1.1046,1.1026,1.1026,1.1027,1.1046,0,1.0589,1.0647,1.0675,1.072,1.0751,1.0775,1.0802,1.0834,1.0858,1.0886,1.0912,1.0945,1.0952,1.0966,1.0984,1.1011,1.1025,1.101,1.105,1.1051,1.1039,1.105,1.1045,1.1061,1.1049,1.1049,1.105,0,1.062,1.0655,1.0703,1.0747,1.0761,1.0785,1.0823,1.0851,1.0887,1.0902,1.0928,1.0948,1.0979,1.0979,1.1023,1.1012,1.1029,1.1045,1.1046,1.1051,1.1051,1.1055,1.1067,1.1069,1.1054,1.1054,1.1054,0,1.0615,1.0673,1.071,1.0728,1.078,1.0796,1.0818,1.0854,1.0876,1.0909,1.0923,1.0959,1.0978,1.1005,1.1032,1.103,1.1073,1.1075,1.1086,1.1085,1.1094,1.1093,1.1109,1.1105,1.1105,1.1105,1.1105,0,1.0635,1.0663,1.0708,1.073,1.0762,1.0793,1.0823,1.0847,1.0878,1.0904,1.0927,1.095,1.0985,1.1013,1.1035,1.1067,1.1075,1.1088,1.1094,1.1086,1.1085,1.1099,1.1098,1.1106,1.1106,1.1105,1.1105,0,1.0635,1.0666,1.0707,1.0753,1.0765,1.0786,1.0825,1.0846,1.087,1.0903,1.0912,1.0949,1.0983,1.1012,1.1057,1.1071,1.1104,1.111,1.1092,1.1095,1.1103,1.1102,1.1128,1.1133,1.1126,1.1126,1.1126,0,1.0645,1.0668,1.0716,1.0735,1.0757,1.0788,1.081,1.0841,1.0863,1.0904,1.092,1.0955,1.0985,1.1037,1.1067,1.1101,1.1109,1.1115,1.1114,1.1105,1.1108,1.1107,1.1108,1.1115,1.1115,1.1115,1.1115,0,1.066,1.0674,1.0706,1.0742,1.0768,1.0798,1.0829,1.0843,1.0879,1.0902,1.0937,1.0959,1.1004,1.1038,1.1075,1.1097,1.1111,1.1115,1.1119,1.1112,1.11,1.1106,1.1091,1.1115,1.1115,1.1115,1.1115,1.1115,1.0666,1.0686,1.0723,1.0756,1.0783,1.081,1.0832,1.0859,1.0888,1.0928,1.0943,1.0978,1.1012,1.1062,1.1084,1.111,1.1113,1.1119,1.1121,1.1122,1.112,1.1096,1.1117,1.1117,1.1117,1.1117,1.1117,0,1.0681,1.0705,1.0736,1.0778,1.0804,1.0816,1.085,1.0871,1.0902,1.0932,1.096,1.0999,1.1032,1.1064,1.1098,1.1113,1.1121,1.1121,1.112,1.1125,1.1116,1.1109,1.1114,1.1114,1.1114,1.1114,1.1114,1.1114,1.0692,1.0727,1.0745,1.0792,1.0816,1.0851,1.0869,1.0894,1.0918,1.0961,1.0988,1.1009,1.104,1.1076,1.1106,1.1114,1.1126,1.1124,1.1134,1.1126,1.1126,1.1126,1.1119,1.1126,1.1126,1.1141,1.1141,1.1141]},{"header":{"parameterUnit":"m.s-1","parameterCategory":1,"la1":30.2991,"la2":30.254,"lo1":-89.0895,"lo2":-89.0444,"dy":0.0017,"dx":0.0017,"nx":28,"ny":28,"refTime":"2024-07-15T21:00:00:Z","depth":0,"parameterNumber":3,"parameterNumberName":"V-component_of_WINDS"},"data":[0,0,0,0,0,0,0,0,0,0,0,0,0,0,0,0,0,0,0,0,0,0,0,0,0,0,0,0,0,0,0,0,0,0,0,0,0,0,0,0,0,0,0,0,0,0,0,0,0,0,0,0,0,0,0,0,0,0,5.891,5.891,0,5.8902,5.8902,5.8902,5.8833,5.8832,5.883,5.8828,5.8821,5.8822,5.8823,0,0,0,0,0,0,0,0,0,0,0,0,0,5.8865,5.8866,5.891,5.891,5.891,5.8902,5.8902,5.8902,5.8834,5.8831,5.8829,5.8827,5.882,5.8822,5.8824,0,0,0,0,0,0,0,0,0,0,0,0,0,5.8874,5.8866,5.891,5.8875,5.8871,5.8902,5.8902,5.8902,5.8834,5.8831,5.8829,5.8826,5.882,5.8822,5.8824,5.8888,0,0,5.883,5.8831,0,0,0,0,0,0,0,0,5.8873,5.8875,5.888,5.8877,5.8873,5.8866,5.8884,5.8897,5.8835,5.8848,5.8828,5.8825,5.8838,5.8838,5.8843,5.8888,5.8888,5.883,5.8832,5.8833,5.8833,0,0,0,0,0,0,0,5.8873,5.8875,5.8907,5.888,5.8876,5.8859,5.8858,5.8886,5.8858,5.8847,5.8842,5.8842,5.8836,5.8841,5.8842,5.8887,5.883,5.8832,5.8834,5.8834,5.8985,5.8987,0,0,0,0,0,0,5.8877,5.8875,5.8907,5.8907,5.8867,5.8862,5.886,5.8871,5.8857,5.8852,5.8844,5.8839,5.8838,5.884,5.8841,5.8915,5.8833,5.8835,5.8836,5.8982,5.8985,5.8988,0,0,0,0,0,0,5.8876,5.888,5.8907,5.889,5.8892,5.8866,5.8878,5.8872,5.8877,5.8855,5.885,5.8854,5.8836,5.8838,5.8877,5.8914,5.8835,5.8837,5.8979,5.8983,5.8987,5.9064,0,0,0,0,0,0,5.8875,5.8881,5.8905,5.8891,5.8893,5.8943,5.8881,5.8874,5.8881,5.8874,5.8863,5.8859,5.8835,5.8874,5.8879,5.8915,5.8839,5.8975,5.8981,5.8985,5.9058,5.907,5.908,0,0,0,0,0,5.8874,5.8927,5.8906,5.8911,5.8922,5.8945,5.8947,5.8917,5.8884,5.8908,5.8894,5.8859,5.891,5.8879,5.8884,5.8921,5.8973,5.8979,5.8985,5.9053,5.9068,5.908,0,0,0,0,0,0,5.8946,5.8924,5.8901,5.8951,5.8951,5.8934,5.8963,5.8934,5.8943,5.8936,5.89,5.8898,5.8942,5.8935,5.8902,5.8983,5.8935,5.8943,5.8985,5.8999,5.901,5.901,5.8841,0,0,0,0,0,5.8968,5.8988,5.8968,5.9014,5.9015,5.899,5.8998,5.8976,5.8974,5.8973,5.8962,5.8961,5.8977,5.8988,5.9001,5.9057,5.9053,5.9085,5.9097,5.9106,5.9113,5.9141,5.9155,5.9008,5.9008,5.9008,0,0,5.9013,5.9003,5.9019,5.9028,5.9025,5.9047,5.899,5.9015,5.9031,5.8977,5.9012,5.9004,5.9001,5.9049,5.9069,5.9045,5.9153,5.9114,5.9122,5.9123,5.9149,5.9163,5.9175,5.9013,5.9012,5.9011,0,0,5.9105,5.9101,5.9138,5.9137,5.9133,5.9115,5.9125,5.9112,5.9104,5.914,5.9099,5.9118,5.9146,5.9145,5.9148,5.9242,5.921,5.9247,5.9306,5.9334,5.9346,5.9356,5.9388,5.9401,5.9254,5.9254,5.9254,0,5.9162,5.9193,5.9161,5.919,5.9195,5.9147,5.9185,5.9185,5.9186,5.9191,5.9163,5.9197,5.9192,5.9238,5.9261,5.9266,5.9275,5.9247,5.9347,5.9357,5.9365,5.9396,5.9409,5.9258,5.9258,5.9258,5.9257,0,5.9262,5.9284,5.9315,5.9317,5.9326,5.9359,5.9332,5.9345,5.9322,5.9308,5.9344,5.9336,5.9347,5.9357,5.9335,5.94,5.9385,5.9353,5.9304,5.9384,5.9412,5.9424,5.9265,5.9263,5.9262,5.9261,0,0,5.9399,5.9383,5.9395,5.9395,5.9388,5.9404,5.9435,5.9445,5.9457,5.9459,5.9484,5.9509,5.9479,5.9483,5.9461,5.9486,5.956,5.9451,5.945,5.947,5.9631,5.9654,5.9668,5.9539,5.9541,5.9543,5.9631,0,5.9488,5.9539,5.9511,5.9566,5.9586,5.9542,5.9569,5.9567,5.9555,5.957,5.9557,5.9574,5.9534,5.9536,5.956,5.9546,5.9591,5.9539,5.9561,5.9562,5.9562,5.9683,5.9707,5.9791,5.9641,5.9643,5.9645,0,5.9597,5.9604,5.9661,5.965,5.9657,5.9682,5.9689,5.9704,5.9702,5.9691,5.9696,5.9667,5.9697,5.965,5.969,5.9655,5.9663,5.9657,5.966,5.966,5.9608,5.9685,5.9816,5.9829,5.9662,5.966,5.9659,0,5.969,5.9714,5.9751,5.9753,5.9741,5.9759,5.9755,5.975,5.9757,5.9764,5.9769,5.9779,5.9784,5.9793,5.9768,5.9736,5.9811,5.9762,5.9802,5.9803,5.9819,5.9818,5.9952,5.9826,5.9826,5.9826,5.9826,0,5.9791,5.9828,5.9793,5.9815,5.9855,5.9823,5.9863,5.9854,5.985,5.9871,5.9833,5.9853,5.982,5.9836,5.9817,5.9853,5.9856,5.9848,5.9842,5.985,5.9851,5.9854,5.9847,5.9829,5.9828,5.9828,5.9827,0,5.9901,5.9879,5.9917,5.9902,5.99,5.9929,5.9917,5.9937,5.9923,5.9949,5.9953,5.993,5.9948,5.9924,5.994,5.9927,5.9975,5.9961,5.9976,5.9972,6.0013,6.0009,6.0153,6.0169,6.0034,6.0035,6.0036,0,5.9967,5.9994,5.9982,5.9993,5.9991,6.0009,6.0017,5.9987,5.9997,5.9996,6.0017,6.0031,6.0041,6.0071,6.0056,6.0067,6.0053,6.0102,6.0054,6.0062,6.0052,6.0051,6.0053,6.0112,6.0113,6.0115,6.0116,0,6.0085,6.0072,6.0085,6.0094,6.0105,6.011,6.0113,6.0124,6.0093,6.0106,6.0124,6.0131,6.0147,6.0162,6.0169,6.0165,6.0135,6.0131,6.0141,6.0149,6.0156,6.0152,6.0002,6.0128,6.0127,6.0126,6.0125,6.0125,6.0173,6.0195,6.019,6.0206,6.0205,6.0209,6.0227,6.0215,6.0229,6.0239,6.0221,6.0243,6.024,6.0247,6.0246,6.0263,6.0241,6.0256,6.0259,6.0263,6.0269,6.0155,6.0264,6.0264,6.0263,6.0263,6.0263,0,6.0289,6.0283,6.0298,6.0303,6.0315,6.0287,6.0289,6.0301,6.0321,6.032,6.0331,6.0351,6.0365,6.0351,6.0363,6.0379,6.0365,6.0383,6.0381,6.038,6.0288,6.0278,6.0393,6.0393,6.0393,6.0393,6.0393,6.0393,6.035,6.0385,6.0372,6.0406,6.0401,6.0422,6.0426,6.0429,6.0428,6.0452,6.0464,6.0455,6.0449,6.046,6.0472,6.0467,6.0473,6.0495,6.0485,6.0399,6.0386,6.0374,6.0364,6.0496,6.0496,6.0576,6.0577,6.0577]}]]